DW2849 Weather Reports


Display with metric or nautical units.
time (UTC)temp
F
wind
direction
speed
MPH
gust
MPH
rain 1hr
in
rain 24hr
in
rain mn
in
humidity
%
barometer
mb
20260904192548 65 193 2.0 7.0 0.00 0.01 0.00 70 1013.9
20260904191448 66 222 3.0 8.0 0.00 0.01 0.00 71 1013.9
20260904190348 66 214 3.0 5.0 0.00 0.01 0.00 71 1014.0
20260904185249 67 32 1.0 3.0 0.00 0.01 0.00 67 1014.0
20260904184148 66 112 1.0 3.0 0.00 0.01 0.00 67 1014.1
20260904183048 65 315 0.0 4.0 0.00 0.01 0.00 69 1014.0
20260904181948 65 295 2.0 3.0 0.00 0.01 0.00 70 1014.0
20260904180848 65 315 2.0 4.0 0.00 0.01 0.00 69 1014.0
20260904175557 62 253 3.0 4.0 0.00 0.01 0.00 77 1014.0
20260904174457 61 94 2.0 4.0 0.00 0.01 0.00 77 1013.9
20260904173357 61 42 2.0 3.0 0.00 0.02 0.00 74 1013.9
20260904172257 60 45 0.0 3.0 0.00 0.04 0.00 76 1013.8
20260904171157 60 71 0.0 4.0 0.00 0.05 0.00 75 1013.7
20260904170057 59 199 2.0 4.0 0.00 0.06 0.00 75 1013.7
20260904164805 59 265 3.0 4.0 0.00 0.07 0.00 74 1013.7
20260904163514 58 214 1.0 3.0 0.00 0.10 0.00 77 1013.7
20260904162414 58 214 2.0 4.0 0.00 0.15 0.00 77 1013.6
20260904161314 57 315 0.0 2.0 0.00 0.16 0.00 79 1013.6
20260904160214 56 278 0.0 4.0 0.00 0.16 0.00 80 1013.6
20260904155114 56 292 0.0 2.0 0.00 0.17 0.00 79 1013.6
20260904153823 55 292 0.0 2.0 0.00 0.19 0.00 79 1013.5
20260904152723 55 267 0.0 3.0 0.00 0.20 0.00 81 1013.5
20260904151623 55 270 1.0 2.0 0.00 0.21 0.00 80 1013.4
20260904150524 55 273 1.0 2.0 0.00 0.22 0.00 79 1013.3
20260904145232 54 270 0.0 2.0 0.00 0.24 0.00 80 1013.1
20260904144132 54 0 0.0 0.0 0.00 0.26 0.00 80 1013.0
20260904143032 54 0 0.0 0.0 0.00 0.28 0.00 81 1012.9
20260904141932 53 0 0.0 0.0 0.00 0.30 0.00 80 1012.8
20260904140832 52 0 0.0 1.0 0.00 0.31 0.00 82 1012.7
20260904135732 52 180 0.0 0.0 0.00 0.32 0.32 84 1012.6
20260904134632 52 65 0.0 0.0 0.00 0.34 0.32 84 1012.5
20260904133532 53 0 0.0 0.0 0.00 0.00 0.00 84 1012.3
20260904132240 53 334 0.0 0.0 0.00 0.40 0.32 83 1012.2
20260904131141 53 315 0.0 0.0 0.00 0.43 0.32 84 1012.1
20260904130041 53 315 0.0 0.0 0.00 0.45 0.32 83 1012.0
20260904124941 53 315 0.0 0.0 0.00 0.46 0.32 84 1011.9
20260904123841 52 270 0.0 0.0 0.00 0.49 0.32 85 1011.9
20260904122741 52 225 0.0 0.0 0.00 0.51 0.32 87 1011.8
20260904121450 52 202 0.0 0.0 0.00 0.52 0.32 87 1011.8
20260904120350 52 225 0.0 0.0 0.00 0.53 0.32 87 1011.9
20260904115249 52 270 0.0 0.0 0.00 0.53 0.32 87 1011.8
20260904114149 52 270 0.0 2.0 0.00 0.53 0.32 87 1011.8
20260904112859 53 315 1.0 2.0 0.00 0.53 0.32 87 1011.8
20260904111801 53 315 1.0 3.0 0.00 0.53 0.32 87 1011.8
20260904110658 53 315 2.0 2.0 0.00 0.53 0.32 87 1011.7
20260904105558 53 321 1.0 2.0 0.00 0.53 0.32 87 1011.7
20260904104458 53 301 2.0 3.0 0.00 0.53 0.32 87 1011.6
20260904103207 53 315 1.0 2.0 0.00 0.53 0.32 87 1011.6
20260904102108 53 248 1.0 2.0 0.00 0.53 0.32 87 1011.7
20260904101007 53 270 1.0 2.0 0.00 0.53 0.32 87 1011.7
20260904095907 53 230 1.0 3.0 0.00 0.53 0.32 87 1011.7
20260904094807 53 214 2.0 4.0 0.00 0.53 0.32 87 1011.7
20260904093707 53 273 1.0 4.0 0.00 0.53 0.32 87 1011.5
20260904092416 53 292 0.0 3.0 0.00 0.53 0.32 87 1011.5
20260904091316 53 270 0.0 0.0 0.00 0.53 0.32 87 1011.6
20260904090216 53 354 1.0 2.0 0.00 0.53 0.32 87 1011.7
20260904085116 53 270 0.0 1.0 0.00 0.53 0.32 87 1011.7
20260904084016 54 202 0.0 2.0 0.00 0.53 0.32 86 1011.7
20260904082916 54 315 1.0 2.0 0.00 0.53 0.32 86 1011.7
20260904081625 54 315 0.0 0.0 0.00 0.53 0.32 87 1011.7
20260904080524 54 315 1.0 2.0 0.00 0.53 0.32 87 1011.7
20260904075425 55 315 1.0 2.0 0.00 0.53 0.32 87 1011.6
20260904074325 55 315 1.0 2.0 0.00 0.53 0.32 87 1011.6
20260904073033 55 315 1.0 2.0 0.00 0.53 0.32 87 1011.6
20260904071933 55 315 2.0 3.0 0.00 0.53 0.32 87 1011.6
20260904070642 55 315 0.0 3.0 0.00 0.53 0.32 87 1011.5
20260904065542 55 228 0.0 2.0 0.00 0.53 0.32 87 1011.6
20260904064442 55 259 1.0 2.0 0.00 0.53 0.32 87 1011.6
20260904063342 55 287 1.0 2.0 0.00 0.53 0.32 87 1011.6
20260904062051 55 235 1.0 4.0 0.00 0.53 0.32 87 1011.6
20260904060951 56 235 1.0 3.0 0.00 0.53 0.32 87 1011.6
20260904055851 56 228 1.0 2.0 0.00 0.53 0.32 87 1011.7
20260904054751 56 242 1.0 3.0 0.00 0.53 0.32 87 1011.8
20260904053652 56 193 0.0 2.0 0.00 0.53 0.32 87 1011.8
20260904052551 56 262 0.0 3.0 0.00 0.53 0.32 87 1011.9
20260904051451 57 236 2.0 4.0 0.00 0.53 0.32 87 1011.9
20260904050200 57 248 1.0 2.0 0.00 0.53 0.32 87 1012.0
20260904045100 57 238 1.0 2.0 0.00 0.53 0.32 87 1011.9
20260904044000 57 222 1.0 2.0 0.00 0.53 0.32 87 1012.0
20260904042708 57 200 1.0 4.0 0.00 0.53 0.32 87 1011.9
20260904041608 57 222 1.0 2.0 0.00 0.53 0.32 87 1011.8
20260904040509 57 273 1.0 3.0 0.00 0.53 0.32 87 1011.7
20260904035409 57 228 2.0 3.0 0.00 0.53 0.32 87 1011.8
20260904034309 57 244 1.0 2.0 0.00 0.53 0.32 86 1011.7
20260904033018 58 255 2.0 4.0 0.00 0.53 0.32 87 1011.6
20260904031917 58 217 2.0 4.0 0.00 0.53 0.32 87 1011.6
20260904030817 58 225 2.0 3.0 0.00 0.53 0.32 87 1011.6
20260904025718 58 270 1.0 4.0 0.00 0.53 0.32 86 1011.6
20260904024618 58 257 1.0 3.0 0.00 0.53 0.32 86 1011.6
20260904023326 58 222 1.0 5.0 0.00 0.53 0.32 86 1011.6
20260904022226 58 270 3.0 5.0 0.00 0.53 0.32 86 1011.6
20260904021126 58 268 3.0 6.0 0.00 0.53 0.32 86 1011.6
20260904020026 59 219 2.0 3.0 0.00 0.53 0.32 86 1011.7
20260904014926 58 235 2.0 4.0 0.00 0.53 0.32 86 1011.8
20260904013826 59 214 1.0 3.0 0.00 0.53 0.32 86 1011.8
20260904012535 59 270 1.0 4.0 0.00 0.53 0.32 86 1011.8
20260904011435 59 212 1.0 2.0 0.00 0.53 0.32 86 1011.9
20260904010335 59 270 1.0 3.0 0.00 0.53 0.32 86 1011.9
20260904005236 59 225 0.0 3.0 0.00 0.53 0.32 86 1011.8
20260904004135 60 276 2.0 4.0 0.00 0.53 0.32 86 1011.9
20260904003035 60 248 1.0 3.0 0.00 0.53 0.32 86 1012.0
20260904001935 60 200 1.0 5.0 0.00 0.53 0.32 86 1012.1
20260904000644 60 235 1.0 2.0 0.01 0.53 0.32 86 1012.0
20260903235545 59 236 1.0 2.0 0.01 0.53 0.32 86 1012.2
20260903234444 59 222 2.0 6.0 0.01 0.53 0.32 87 1012.4
20260903233153 59 210 1.0 3.0 0.01 0.53 0.32 86 1012.4
20260903232052 59 222 1.0 3.0 0.01 0.53 0.32 86 1012.5
20260903230953 59 198 1.0 2.0 0.01 0.53 0.32 86 1012.7
20260903225854 59 196 1.0 3.0 0.00 0.52 0.31 86 1012.8
20260903224601 59 214 1.0 3.0 0.00 0.52 0.31 86 1012.8
20260903223501 60 259 2.0 6.0 0.00 0.52 0.31 85 1012.9
20260903222401 61 199 1.0 3.0 0.00 0.52 0.31 85 1013.0
20260903221302 61 186 2.0 5.0 0.00 0.52 0.31 85 1012.9
20260903220202 61 190 1.0 3.0 0.00 0.00 0.00 85 1012.9
20260903215101 62 202 1.0 6.0 0.00 0.52 0.31 85 1013.1
20260903214001 62 258 2.0 3.0 0.00 0.52 0.31 85 1013.1
20260903212901 62 270 2.0 4.0 0.00 0.52 0.31 84 1013.1
20260903211802 62 251 1.0 4.0 0.00 0.52 0.31 85 1013.1
20260903210701 62 240 1.0 4.0 0.00 0.52 0.31 84 1013.1
20260903205408 61 250 0.0 5.0 0.00 0.52 0.31 85 1013.2
20260903204308 61 265 2.0 6.0 0.00 0.52 0.31 84 1013.3
20260903203017 61 217 3.0 4.0 0.00 0.52 0.31 86 1013.2
20260903201916 61 170 2.0 6.0 0.00 0.52 0.31 87 1013.3
20260903200817 61 296 3.0 8.0 0.00 0.52 0.31 87 1013.3
20260903195716 61 222 3.0 5.0 0.00 0.52 0.31 86 1013.5
20260903194616 61 292 2.0 6.0 0.00 0.52 0.31 87 1013.6
20260903193517 61 233 3.0 4.0 0.00 0.52 0.31 86 1013.7